TimeAST,TemperatureF,Dew PointF,Humidity,Sea Level PressureIn,VisibilityMPH,Wind Direction,Wind SpeedMPH,Gust SpeedMPH,PrecipitationIn,Events,Conditions,WindDirDegrees,DateUTC
12:56 AM,80.1,73.0,79,29.92,10.0,Calm,Calm,-,N/A,,Partly Cloudy,0,2012-11-09 04:56:00
1:56 AM,79.0,73.0,82,29.89,10.0,Calm,Calm,-,N/A,,Clear,0,2012-11-09 05:56:00
2:56 AM,79.0,73.0,82,29.87,10.0,Calm,Calm,-,N/A,,Clear,0,2012-11-09 06:56:00
3:56 AM,78.1,73.0,84,29.87,10.0,Calm,Calm,-,N/A,,Clear,0,2012-11-09 07:56:00
4:56 AM,78.1,73.0,84,29.88,10.0,Calm,Calm,-,N/A,,Scattered Clouds,0,2012-11-09 08:56:00
5:56 AM,78.1,73.0,84,29.89,10.0,Calm,Calm,-,N/A,,Mostly Cloudy,0,2012-11-09 09:56:00
6:56 AM,78.1,73.0,84,29.91,10.0,Calm,Calm,-,N/A,,Scattered Clouds,0,2012-11-09 10:56:00
7:56 AM,81.0,72.0,74,29.92,10.0,Calm,Calm,-,N/A,,Scattered Clouds,0,2012-11-09 11:56:00
8:56 AM,84.9,73.9,69,29.94,10.0,ENE,5.8,-,N/A,,Scattered Clouds,70,2012-11-09 12:56:00
9:56 AM,84.9,75.0,72,29.96,10.0,ENE,5.8,-,N/A,,Scattered Clouds,60,2012-11-09 13:56:00
10:56 AM,87.1,73.9,65,29.96,10.0,NE,10.4,-,N/A,,Scattered Clouds,40,2012-11-09 14:56:00
11:56 AM,87.1,73.9,65,29.93,10.0,NE,12.7,20.7,N/A,,Scattered Clouds,40,2012-11-09 15:56:00
12:56 PM,88.0,75.0,65,29.91,10.0,NE,11.5,19.6,N/A,,Scattered Clouds,50,2012-11-09 16:56:00
1:56 PM,88.0,75.0,65,29.90,10.0,NE,9.2,-,N/A,,Scattered Clouds,50,2012-11-09 17:56:00
2:56 PM,87.1,73.9,65,29.89,10.0,NE,9.2,-,N/A,,Scattered Clouds,50,2012-11-09 18:56:00
3:56 PM,86.0,73.9,67,29.87,10.0,ENE,12.7,18.4,N/A,,Scattered Clouds,60,2012-11-09 19:56:00
4:56 PM,84.0,75.0,74,29.88,10.0,ENE,10.4,-,N/A,,Scattered Clouds,60,2012-11-09 20:56:00
5:56 PM,82.9,73.9,74,29.88,10.0,ENE,10.4,16.1,N/A,,Scattered Clouds,60,2012-11-09 21:56:00
6:56 PM,82.9,73.9,74,29.90,10.0,ENE,9.2,-,N/A,,Scattered Clouds,70,2012-11-09 22:56:00
7:56 PM,82.0,73.0,74,29.91,10.0,ENE,5.8,-,N/A,,Scattered Clouds,70,2012-11-09 23:56:00
8:56 PM,82.0,73.9,76,29.92,10.0,East,5.8,-,N/A,,Scattered Clouds,80,2012-11-10 00:56:00
9:56 PM,81.0,73.9,79,29.93,10.0,East,4.6,-,N/A,,Scattered Clouds,90,2012-11-10 01:56:00
10:56 PM,81.0,73.0,77,29.92,10.0,East,3.5,-,N/A,,Scattered Clouds,90,2012-11-10 02:56:00
11:56 PM,81.0,73.9,79,29.91,10.0,East,4.6,-,N/A,,Scattered Clouds,100,2012-11-10 03:56:00